Tracking 27420 objects as of 10-Jun-2023
HD Live streaming from Space Station
objects crossing your sky now

THOR ABLESTAR DEB

Track THOR ABLESTAR DEB now!
10-day predictions


NORAD ID: 3125
Int'l Code: 1961-015HY
Perigee: 939.9 km
Apogee: 1,398.2 km
Inclination: 67.6 °
Period: 108.6 minutes
Semi major axis: 7540 km
RCS: 0.0125 m2 (small)
Launch date: June 29, 1961
Source: United States (US)
Launch site: AIR FORCE EASTERN TEST RANGE (AFETR)

Note: This is SATELLITE DEBRIS
Your satellite tracking list
Your tracking list is empty




NASA's NSSDC Master Catalog

Two Line Element Set (TLE):
1 03125U 61015HY  23160.20072480  .00000701  00000-0  13483-2 0  9998
2 03125  67.5582  78.2649 0303896 165.2874 358.7180 13.25984944  1062
Source of the keplerian elements: AFSPC